Location: Newark
(44.6028°N, 124.0883°W)
Time: 22:36:15
(UTC+00:00)

Courier 1B Rocket - Visible Passes

Search period start: 21 October 2019 00:00
Search period end: 31 October 2019 00:00
Orbit: 920 x 1202 km, 28.2° (Epoch: 20 October)

Date Brightness Start Highest point End Pass type
(mag) Time Alt. Az. Time Alt. Az. Time Alt. Az.
21 Oct 6.8 12:57:50 12° SSW 13:00:56 17° S 13:04:55 10° SE visible
22 Oct 6.7 12:00:40 17° S 12:00:40 17° S 12:04:06 10° SE visible
22 Oct 6.9 13:49:04 10° SW 13:52:33 15° S 13:56:04 10° SSE visible
23 Oct 6.7 12:49:52 14° SSW 12:51:55 17° S 12:55:42 10° SSE visible
24 Oct 6.8 11:52:42 16° SSE 11:52:42 16° SSE 11:55:09 10° SE visible
24 Oct 6.9 13:40:53 10° SW 13:43:29 13° SSW 13:46:06 10° S visible
25 Oct 6.7 12:41:55 15° SSW 12:42:51 15° S 12:46:14 10° SSE visible
26 Oct 7.1 11:44:47 13° SSE 11:44:47 13° SSE 11:46:00 10° SSE visible
27 Oct 6.9 12:34:02 13° SSW 12:34:02 13° SSW 12:36:18 10° S visible
